Hourly Data Report for September 01, 2017

All times are specified in Local Standard Time (LST). Add 1 hour to adjust for Daylight Saving Time where and when it is observed.

IQALUIT CLIMATE
NUNAVUT

63°44'50.000" N
68°32'40.000" W
33.50 m
2402592
71321
XFB

Download Data

Hourly Data (September 2017)
Hourly Data Report for September 1, 2017
Temp Definition
°C
Dew Point Temp Definition
°C
Rel Hum Definition
%
Wind Dir Definition
10's deg

Wind Spd Definition
km/h
Visibility Definition
km
Stn Press Definition
kPa
Hmdx Definition


Wind Chill Definition


Weather Definition


TIME
00:00 3.4 1.6 88 15 18   100.53     LegendNANA
01:00 4.9 2.8 86 12 12   100.46     LegendNANA
02:00 7.7 3.8 76 23 35   100.38     LegendNANA
03:00 7.3 3.7 78 20 6   100.37     LegendNANA
04:00 7.3 4.4 82 13 10   100.35     LegendNANA
05:00 8.1 5.0 81 32 10   100.42     LegendNANA
06:00 8.5 5.1 79 26 32   100.40     LegendNANA
07:00 8.2 4.8 79 25 24   100.37     LegendNANA
08:00 8.4 4.7 78 25 17   100.36     LegendNANA
09:00 9.1 4.8 75 24 8   100.45     LegendNANA
10:00 10.0 4.7 69 27 28   100.43     LegendNANA
11:00 10.1 4.5 68 27 26   100.44     LegendNANA
12:00 10.1 4.7 69 27 20   100.45     LegendNANA
13:00 10.2 5.1 70 8 8   100.46     LegendNANA
14:00 8.0 4.1 77 17 7   100.45     LegendNANA
15:00 10.5 5.1 70 28 16   100.41     LegendNANA
16:00 11.0 5.1 67 27 19   100.42     LegendNANA
17:00 11.1 5.1 67 26 28   100.41     LegendNANA
18:00 11.6 5.4 66 26 19   100.38     LegendNANA
19:00 10.9 5.2 68 25 22   100.36     LegendNANA
20:00 10.2 5.2 71 22 11   100.35     LegendNANA
21:00 8.7 4.6 75 24 8   100.32     LegendNANA
22:00 8.3 5.1 80 24 10   100.29     LegendNANA
23:00 8.7 5.2 79 24 7   100.20     LegendNANA

Notes on Data Quality.

Legend

  • E = Estimated
  • M = Missing
  • NA = Not Available
  • ‡ = Partner data that is not subject to review by the National Climate Archives
Date modified: